Port Angeles, WA

1:02 AM PST on February 24, 2017 (GMT -0800)
Fairchild International

Weather History for KCLM - November, 2013

Change the Weather History Date:

Saturday, November 16, 2013

  Actual Average Record
Temperature  
Mean Temperature 44 °F -  
Max Temperature 48 °F 50 °F 59 °F (1976)
Min Temperature 41 °F 38 °F 21 °F (1959)
Degree Days  
Heating Degree Days 20    
Moisture  
Dew Point 32 °F    
Average Humidity 61    
Maximum Humidity 70    
Minimum Humidity 51    
Precipitation  
Precipitation 0.00 in - - ()
Sea Level Pressure  
Sea Level Pressure 29.56 in    
Wind  
Wind Speed 13 mph (WNW)    
Max Wind Speed 23 mph    
Max Gust Speed 38 mph    
Visibility 10 miles    
Events      
Averages and records for this station are not official NWS values.
T = Trace of Precipitation, MM = Missing Value Source: NWS Daily Summary

Daily Weather History Graph

Daily Weather History Graph

Search for Another Location

Airport or City:

Trip Planner

Search our weather history database for the weather conditions in past years. The results will help you decide how hot, cold, wet, or windy it might be!

Date:

Astronomy

Nov. 16, 2013 Rise Set
Actual Time 7:22 AM PST 4:34 PM PST
Civil Twilight 6:48 AM PST 5:08 PM PST
Nautical Twilight 6:10 AM PST 5:46 PM PST
Astronomical Twilight 5:33 AM PST 6:23 PM PST
Moon 4:16 PM PST (11/16) 6:20 AM PST (11/16)
Length of Visible Light 10h 19m
Length of Day
9h 11m
Waxing Gibbous, 99% of the Moon is Illuminated
Nov 16
Waxing Gibbous
Nov 17
Full
Nov 25
Last Quarter
Dec 2
New
Dec 9
First Quarter

Hourly Weather History & Observations

Time (PST) Temp. Windchill Dew Point Humidity Pressure Visibility Wind Dir Wind Speed Gust Speed Precip Events Conditions
12:53 AM 46.9 °F - 34.0 °F 61% 29.38 in 10.0 mi West 23.0 mph 38.0 mph N/A   Mostly Cloudy
1:53 AM 45.0 °F 37.9 °F 34.0 °F 65% 29.40 in 10.0 mi West 16.1 mph - N/A   Partly Cloudy
2:53 AM 44.1 °F 37.7 °F 33.1 °F 65% 29.42 in 10.0 mi West 12.7 mph - N/A   Clear
3:53 AM 43.0 °F 37.7 °F 32.0 °F 65% 29.43 in 10.0 mi West 9.2 mph - N/A   Clear
4:53 AM 41.0 °F 34.7 °F 32.0 °F 70% 29.44 in 10.0 mi WNW 10.4 mph - N/A   Clear
5:53 AM 41.0 °F 34.7 °F 32.0 °F 70% 29.45 in 10.0 mi WNW 10.4 mph - N/A   Clear
6:53 AM 42.1 °F 37.1 °F 32.0 °F 67% 29.47 in 10.0 mi WNW 8.1 mph 19.6 mph N/A   Clear
7:53 AM 43.0 °F 35.7 °F 32.0 °F 65% 29.49 in 10.0 mi WNW 15.0 mph - N/A   Clear
8:53 AM 45.0 °F 39.3 °F 33.1 °F 63% 29.51 in 10.0 mi West 11.5 mph - N/A   Clear
9:53 AM 46.9 °F - 33.1 °F 59% 29.54 in 10.0 mi West 9.2 mph - N/A   Clear
10:53 AM 48.0 °F - 36.0 °F 63% 29.56 in 10.0 mi NW 8.1 mph - N/A   Clear
11:53 AM 48.9 °F - 33.1 °F 54% 29.56 in 10.0 mi WSW 6.9 mph - N/A   Clear
12:53 PM 48.0 °F - 34.0 °F 58% 29.57 in 10.0 mi WNW 12.7 mph - N/A   Overcast
1:53 PM 46.9 °F - 33.1 °F 59% 29.58 in 10.0 mi WNW 10.4 mph - N/A   Mostly Cloudy
2:53 PM 46.9 °F - 30.9 °F 54% 29.60 in 10.0 mi WNW 11.5 mph - N/A   Partly Cloudy
3:53 PM 46.0 °F 39.9 °F 30.9 °F 56% 29.61 in 10.0 mi WNW 13.8 mph - N/A   Overcast
4:53 PM 43.0 °F 37.7 °F 28.9 °F 58% 29.63 in 10.0 mi WNW 9.2 mph - N/A   Partly Cloudy
5:53 PM 43.0 °F 36.8 °F 28.9 °F 58% 29.65 in 10.0 mi WNW 11.5 mph - N/A   Clear
6:53 PM 43.0 °F 38.2 °F 28.9 °F 58% 29.66 in 10.0 mi WNW 8.1 mph - N/A   Overcast
7:53 PM 46.0 °F 41.0 °F 28.9 °F 51% 29.68 in 10.0 mi WNW 10.4 mph - N/A   Overcast
8:53 PM 46.9 °F - 30.0 °F 52% 29.69 in 10.0 mi West 11.5 mph 20.7 mph N/A   Overcast
9:53 PM 45.0 °F 40.1 °F 32.0 °F 60% 29.71 in 10.0 mi WSW 9.2 mph - N/A   Overcast
10:53 PM 42.1 °F 34.5 °F 33.1 °F 70% 29.72 in 10.0 mi WSW 15.0 mph - N/A   Scattered Clouds
11:53 PM 42.1 °F 35.2 °F 33.1 °F 70% 29.73 in 10.0 mi West 12.7 mph - N/A   Clear